Regional Weather Roundup
Issued by NWS

Home | Current Version | Previous Version | Graphics & Text | Print | Product List | Glossary On
Versions: 1 2 3 4 5 6 7 8 9 10 11 12 13 14 15 16 17 18 19 20 21 22 23 24 25 26 27 28 29 30 31 32 33 34 35 36 37 38 39 40 41 42 43 44 45 46 47 48 49 50
000
ASUS43 KLMK 241810
RWRKY
SDFRWRKY ALL
KENTUCKY REGIONAL WEATHER ROUNDUP
NATIONAL WEATHER SERVICE LOUISVILLE KY
100 PM EST FRI NOV 24 2017

NOTE "FAIR" INDICATES FEW OR NO CLOUDS BELOW 12,000 FEET
WITH NO SIGNIFICANT WEATHER AND/OR OBSTRUCTIONS TO VISIBILITY.

KYZ001>023-026-027-061>063-070>075-241900-
WESTERN AND SOUTH CENTRAL KENTUCKY

CITY           SKY/WX    TMP DP  RH WIND       PRES   REMARKS
PADUCAH        SUNNY     59  30  33 S9        29.89F
HENDERSON      MOSUNNY   58  34  40 S16       29.88F
OWENSBORO      SUNNY     56  31  38 S15       29.90F
HOPKINSVILLE   SUNNY     59  21  23 SW15      29.92F
BOWLING GREEN  MOSUNNY   58  24  27 S13       29.94F
GLASGOW        SUNNY     58  25  28 SW10      29.95F
$$

KYZ024-025-028>034-038-045-046-053-241900-
NORTH CENTRAL KENTUCKY

CITY           SKY/WX    TMP DP  RH WIND       PRES   REMARKS
LOUISVILLE/SDF PTSUNNY   56  24  29 S10       29.90F
LOUISVILLE/LOU MOSUNNY   54  28  36 S10       29.91F
FORT KNOX      MOSUNNY   56  21  26 S12       29.90F
$$

KYZ035>037-039>044-047>052-055>060-089>105-241900-
NORTHEAST KENTUCKY

CITY           SKY/WX    TMP DP  RH WIND       PRES   REMARKS
LEXINGTON      SUNNY     56  24  29 SW9       29.93F
COVINGTON      MOSUNNY   53  25  33 S13       29.89F
FRANKFORT      SUNNY     57  21  24 S14       29.91F
$$

KYZ054-064>069-076>088-106>120-241900-
SOUTHEAST KENTUCKY

CITY           SKY/WX    TMP DP  RH WIND       PRES   REMARKS
JACKSON        SUNNY     56  29  35 CALM      29.94F
LONDON         SUNNY     57  29  34 VRB6      29.95F
SOMERSET       SUNNY     54  28  37 W8        29.96F
MIDDLESBORO    SUNNY     56  35  45 S8        29.97F
MONTICELLO     CLEAR     60  32  34 W14G23    29.96F
$$





USA.gov is the U.S. government's official web portal to all federal, state and local government web resources and services.